Content
SEND FEEDBACK

Daily
Averages
Monthly
Summary
United Kingdom

INVERNESS, SCOTLAND


Home > Europe > United Kingdom > Scotland
Elevation: 30 feet     Latitude: 57 32N     Longitude: 004 03W

WEATHER
 
SELECT A DAY
Number of Records: 233,990;   Date Range: 7/1/96 - 10/21/14
 
SHARE

PRINT THIS DATA

[ ← Previous Day ]
WEATHER ALMANAC - JANUARY 10, 2013
[ Next Day → ]
[ °C ]   °F
Weather ElementAverageHighLow
Temperature39.9 °F42.8 °F (12:20 pm)33.8 °F (11:20 pm)
Dewpoint37.7 °F41 °F (10:50 am)30.2 °F (11:20 pm)
Humidity91.9 %100 % (5:20 am)81 % (8:20 pm)
Barometer29.99 in30.04 in (12:50 am)29.95 in (4:20 pm)
Wind Speed3 mph6.9 mph (11:50 pm)
Weather ElementAverage
Visibility5.4 mi
Wind DirectionE (93.6 °)

Weather ElementTotal
Precipitation---
Heating Degree Days26.7 (Base 65)
Averaged from 47 records on January 10, 2013
WEATHER CONDITIONS BREAKOUT
WIND DIRECTION BREAKOUT
WEATHER BY HOUR - JANUARY 10, 2013
[ °C ]   °F
Local TimeTemperatureDewpointHumidityBarometerVisibilityWind DirectionWind SpeedGust SpeedPrecipitationEventsConditions
12:50 AM41.0 °F39.2 °F93 %30.04 in6.2 miWSW (240°)5.8 mphOvercast
1:20 AM41.0 °F39.2 °F93 %30.04 in6.2 miWSW (240°)4.6 mphOvercast
1:50 AM41.0 °F39.2 °F93 %30.04 in6.2 miSW (230°)4.6 mphMostly Cloudy
2:20 AM41.0 °F39.2 °F93 %30.01 in6.2 miSW (220°)2.3 mphOvercast
2:50 AM41.0 °F39.2 °F93 %30.01 in6.2 miCalmMostly Cloudy
3:20 AM41.0 °F39.2 °F93 %30.01 in6.2 miSW (220°)2.3 mphMostly Cloudy
3:50 AM39.2 °F37.4 °F93 %30.01 in6.2 miWSW (240°)3.5 mphMostly Cloudy
4:20 AM39.2 °F37.4 °F93 %30.01 in6.2 miSW (230°)4.6 mphMostly Cloudy
4:50 AM37.4 °F35.6 °F93 %30.01 in6.2 miSW (230°)3.5 mphMostly Cloudy
5:20 AM35.6 °F35.6 °F100 %30.01 in6.2 miSSW (200°)2.3 mphMostly Cloudy
5:50 AM37.4 °F35.6 °F93 %30.01 in6.2 miCalmMostly Cloudy
6:20 AM39.2 °F37.4 °F93 %30.01 in6.2 miCalmMostly Cloudy
6:50 AM39.2 °F37.4 °F93 %30.01 in5.0 miNNE (30°)3.5 mphFogLight Drizzle
7:20 AM39.2 °F37.4 °F93 %30.01 in1.9 miCalmLight Drizzle
7:50 AM39.2 °F39.2 °F100 %30.01 in1.9 miCalmLight Drizzle
8:20 AM39.2 °F39.2 °F100 %30.01 in1.9 miCalmLight Drizzle
8:50 AM39.2 °F39.2 °F100 %30.01 in3.7 miCalmFogLight Drizzle
9:20 AM39.2 °F39.2 °F100 %30.01 in3.7 miCalmFogLight Drizzle
9:50 AM41.0 °F39.2 °F93 %30.01 in2.5 miCalmLight Drizzle
10:20 AM41.0 °F39.2 °F93 %30.01 in3.7 miCalmLight Drizzle
10:50 AM41.0 °F41.0 °F100 %30.01 in2.5 miNNE (30°)2.3 mphLight Drizzle
11:20 AM41.0 °F41.0 °F100 %30.01 in3.7 miNE (50°)2.3 mphMostly Cloudy
11:50 AM41.0 °F41.0 °F100 %30.01 in4.3 miCalmMostly Cloudy
12:20 PM42.8 °F41.0 °F93 %29.98 in5.0 miVariable2.3 mphMostly Cloudy
12:50 PM42.8 °F41.0 °F93 %29.98 in5.0 miVariable2.3 mphMostly Cloudy
1:20 PM42.8 °F41.0 °F93 %29.98 in5.0 miNE (50°)4.6 mphMostly Cloudy
1:50 PM42.8 °F41.0 °F93 %29.98 in5.6 miNE (50°)4.6 mphMostly Cloudy
2:20 PM42.8 °F41.0 °F93 %29.98 in6.2 miENE (70°)4.6 mphMostly Cloudy
2:50 PM42.8 °F39.2 °F87 %29.98 in6.2 miEast (90°)5.8 mphMostly Cloudy
3:20 PM41.0 °F39.2 °F93 %29.98 in6.2 miEast (90°)4.6 mphMostly Cloudy
3:50 PM41.0 °F37.4 °F87 %29.98 in6.2 miESE (110°)4.6 mphLight Drizzle
4:20 PM41.0 °F37.4 °F87 %29.95 in6.2 miEast (100°)5.8 mphMostly Cloudy
4:50 PM41.0 °F37.4 °F87 %29.95 in6.2 miEast (90°)5.8 mphMostly Cloudy
5:20 PM41.0 °F37.4 °F87 %29.95 in6.2 miESE (120°)4.6 mphMostly Cloudy
5:50 PM41.0 °F37.4 °F87 %29.95 in6.2 miEast (90°)5.8 mphMostly Cloudy
6:20 PM41.0 °F37.4 °F87 %29.95 in6.2 miEast (90°)4.6 mphMostly Cloudy
6:50 PM41.0 °F37.4 °F87 %29.95 in6.2 miEast (100°)5.8 mphMostly Cloudy
7:20 PM41.0 °F37.4 °F87 %29.98 in6.2 miESE (110°)3.5 mphMostly Cloudy
7:50 PM41.0 °F37.4 °F87 %29.98 in6.2 miESE (120°)4.6 mphMostly Cloudy
8:20 PM41.0 °F35.6 °F81 %29.98 in6.2 miSE (130°)4.6 mphMostly Cloudy
8:50 PM39.2 °F35.6 °F87 %29.98 in6.2 miESE (110°)3.5 mphMostly Cloudy
9:20 PM39.2 °F35.6 °F87 %29.98 in6.2 miVariable2.3 mphMostly Cloudy
9:50 PM37.4 °F35.6 °F93 %29.98 in6.2 miCalmMostly Cloudy
10:20 PM35.6 °F32.0 °F87 %29.98 in6.2 miSSW (200°)2.3 mphMostly Cloudy
10:50 PM35.6 °F32.0 °F87 %29.98 in6.2 miSouth (180°)2.3 mphScattered Clouds
11:20 PM33.8 °F30.2 °F87 %29.98 in6.2 miSouth (170°)4.6 mph
11:50 PM33.8 °F30.2 °F87 %29.98 in6.2 miSouth (170°)6.9 mph
Hourly data recorded from EGPE, located miles away from Inverness, Scotland







STORIES FROM OUR PARTNERS